DW1546 Weather Reports


time (UTC)temp
C
wind
direction
speed
KPH
gust
KPH
rain 1hr
cm
rain 24hr
cm
rain mn
cm
humidity
%
barometer
mb
20260504201540 23 237 4.8 0.0 0.00 0.00 0.00 35 1010.5
20260504200041 24 254 4.8 0.0 0.00 0.00 0.00 33 1010.6
20260504194637 24 225 1.6 0.0 0.00 0.00 0.00 33 1010.9
20260504193034 23 285 3.2 0.0 0.00 0.00 0.00 34 1011.2
20260504191531 23 205 8.0 0.0 0.00 0.00 0.00 35 1011.4
20260504190035 23 183 4.8 0.0 0.00 0.00 0.00 34 1011.8
20260504184528 23 251 6.4 0.0 0.00 0.00 0.00 34 1012.1
20260504183029 23 131 3.2 0.0 0.00 0.00 0.00 34 1012.2
20260504181525 23 296 4.8 0.0 0.00 0.00 0.00 34 1012.4
20260504180023 22 246 6.4 0.0 0.00 0.00 0.00 34 1012.6
20260504174520 22 243 4.8 0.0 0.00 0.00 0.00 35 1012.7
20260504173020 22 198 3.2 0.0 0.00 0.00 0.00 32 1012.8
20260504171533 22 117 4.8 0.0 0.00 0.00 0.00 33 1013.0
20260504081525 5 232 0.0 0.0 0.00 0.00 0.00 92 1016.1
20260504050000 4 232 0.0 0.0 0.00 0.00 0.00 84 1016.4
20260504044605 4 232 0.0 0.0 0.00 0.00 0.00 84 1016.3
20260504043100 4 232 0.0 0.0 0.00 0.00 0.00 83 1016.4
20260504041556 5 232 0.0 0.0 0.00 0.00 0.00 82 1016.4
20260504040054 5 232 0.0 0.0 0.00 0.00 0.00 80 1016.3
20260504034608 5 232 0.0 0.0 0.00 0.00 0.00 78 1016.4
20260504033053 5 232 0.0 0.0 0.00 0.00 0.00 77 1016.3
20260504031553 6 232 0.0 0.0 0.00 0.00 0.00 76 1016.1
20260504030053 6 232 0.0 0.0 0.00 0.00 0.00 75 1015.8
20260504024551 6 232 0.0 0.0 0.00 0.00 0.00 72 1015.8
20260504023051 7 232 0.0 0.0 0.00 0.00 0.00 71 1015.9
20260504021551 7 232 0.0 0.0 0.00 0.00 0.00 66 1015.9
20260504020050 8 232 0.0 0.0 0.00 0.00 0.00 66 1015.7
20260504014602 8 232 0.0 0.0 0.00 0.00 0.00 62 1015.6
20260504013053 9 232 0.0 0.0 0.00 0.00 0.00 59 1015.6
20260504011552 10 232 0.0 0.0 0.00 0.00 0.00 57 1015.4
20260504010056 10 232 0.0 0.0 0.00 0.00 0.00 52 1015.3
20260504004548 11 232 0.0 0.0 0.00 0.00 0.00 49 1015.2
20260504003052 12 232 0.0 0.0 0.00 0.00 0.00 47 1015.1
20260504001547 13 232 0.0 0.0 0.00 0.00 0.00 42 1014.9
20260504000049 13 232 0.0 0.0 0.00 0.00 0.00 41 1014.8
20260503234550 13 232 0.0 0.0 0.00 0.00 0.00 39 1014.7
20260503233046 14 232 0.0 0.0 0.00 0.00 0.00 39 1014.5
20260503231545 15 232 0.0 0.0 0.00 0.00 0.00 36 1014.4
20260503230045 15 232 0.0 0.0 0.00 0.00 0.00 37 1014.3
20260503224544 15 232 0.0 0.0 0.00 0.00 0.00 35 1014.4
20260503223044 15 232 0.0 0.0 0.00 0.00 0.00 34 1014.4
20260503221543 16 229 0.0 0.0 0.00 0.00 0.00 33 1014.5
20260503220049 16 233 0.0 0.0 0.00 0.00 0.00 30 1014.5
20260503214542 16 265 0.0 0.0 0.00 0.00 0.00 30 1014.7
20260503213045 16 265 1.6 0.0 0.00 0.00 0.00 29 1014.5
20260503211540 16 269 0.0 0.0 0.00 0.00 0.00 31 1014.5
20260503210040 16 240 1.6 0.0 0.00 0.00 0.00 31 1014.6
20260503204540 16 321 3.2 0.0 0.00 0.00 0.00 33 1014.7
20260503203039 16 278 1.6 0.0 0.00 0.00 0.00 33 1014.7